Dewpoint
53 55 56 57 58 57 58 58 58 56 58 58 57 57 58 57 58 58 59 59 60 62 63 63 63 62 61
53 54 55 56 57 57 57 58 58 56 57 57 57 57 56 56 56 56 57 57 58 59 60 61 62 62 61
53 54 56 57 57 56 56 57 57 55 56 56 56 56 56 56 55 55 55 55 55 56 56 58 60 61 62
53 54 55 55 57 56 55 56 56 56 55 55 56 55 55 56 55 54 53 54 55 56 56 55 56 59 60
53 51 52 52 53 54 55 55 56 56 55 54 56 55 55 54 53 52 52 53 54 55 55 56 56 57 58
52 51 50 52 53 53 52 52 51 51 54 51 49 47 47 49 50 51 51 53 53 53 54 54 55 54 54
51 51 51 52 52 51 51 51 51 48 49 45 46 44 45 47 49 49 49 50 51 52 52 52 51 52 52
45 44 45 47 51 51 52 49 45 45 46 41 44 42 43 43 47 48 49 49 50 50 51 50 50 50 50
40 40 41 43 45 48 47 43 41 41 42 42 42 39 39 39 43 47 48 48 49 49 49 49 49 48 48
37 37 37 38 40 39 43 38 36 36 40 38 37 37 35 37 38 43 44 47 48 48 48 47 46 45 45
35 35 35 35 35 36 37 38 35 34 37 37 35 35 35 35 36 38 39 40 41 41 43 44 44 43 42
33 32 33 33 34 34 34 35 35 35 37 37 33 35 34 34 34 34 34 35 37 35 37 40 40 41 41
31 31 31 32 33 33 33 33 33 33 33 34 35 34 34 33 33 33 33 33 33 34 35 36 37 37 34
28 27 27 26 27 26 29 27 28 29 30 31 28 31 31 31 29 27 28 30 31 31 32 33 34 35 36
25 25 27 26 25 22 20 21 22 18 21 25 28 29 29 26 28 29 28 30 31 31 31 30 31 31 32
24 24 22 21 20 20 19 18 20 18 20 20 19 19 22 31 30 28 26 29 27 26 25 22 23 27 30
18 17 18 18 17 16 14 15 15 15 14 14 14 7 7 12 24 28 25 21 20 21 24 23 23 26 29
Lifted_Index
4 4 3 2 2 1 1 0 -0 -0 -1 -1 -1 -1 -1 -0 0 1 2 2 2 2 2 1 1 1 1
5 4 3 3 2 2 1 1 0 -0 -0 -0 -1 -1 -1 -1 -0 1 1 2 2 2 2 2 1 1 1
5 4 3 3 2 2 1 1 1 0 -0 -0 -0 -0 -0 -0 -0 -0 0 0 1 1 1 2 2 2 1
4 4 3 2 2 1 1 1 1 1 1 0 0 0 0 -0 -1 -1 -0 -0 -0 0 0 1 1 2 2
4 4 3 2 2 1 1 1 1 1 1 1 1 1 0 -0 -0 -1 -1 -1 -1 -0 0 1 1 1 2
4 4 3 3 2 2 2 2 2 2 2 1 1 1 1 1 1 0 -0 -0 -0 -0 0 1 1 1 2
4 4 3 3 3 2 2 2 2 2 2 2 1 1 1 2 2 1 1 1 1 1 1 1 1 2 2
4 4 4 3 3 3 2 2 2 2 2 2 2 2 2 2 3 3 3 2 3 3 3 3 3 3 3
5 4 4 4 4 3 3 2 2 2 2 2 2 2 3 4 4 5 5 5 4 5 6 6 6 6 6
5 5 5 4 4 3 3 2 2 2 2 2 2 3 3 5 6 7 7 6 6 7 8 8 8 8 7
6 6 6 5 5 4 4 4 3 3 4 4 3 4 4 5 6 7 8 8 8 8 9 10 10 10 9
7 7 7 7 6 6 6 6 6 6 6 6 6 6 6 6 7 7 8 9 10 10 11 11 12 13 13
9 9 8 8 8 8 8 8 8 8 9 9 9 8 8 9 9 9 10 12 13 13 14 15 15 16 16
13 13 12 12 12 11 11 12 11 12 13 14 13 13 13 13 13 14 14 15 16 17 17 17 17 18 18
16 16 16 16 15 15 15 15 15 15 15 16 16 16 16 16 17 17 17 17 18 18 18 17 18 18 19
17 17 17 17 17 17 17 17 16 16 16 17 17 17 16 17 18 18 18 18 18 19 18 17 18 19 20
18 17 17 17 17 17 17 17 16 16 16 17 17 16 16 16 18 19 19 19 19 19 19 18 18 19 21